www.pogodaiklimat.ru

Погода и климат >> Архив погоды >> Намибия >> Людериц


ПОГОДА в Людерице

  • Прогноз погоды в Людерице
  • Монитор погоды в Людерице

АРХИВ ПОГОДЫ в Людерице

Время (UTC), дата Ветер
(напр.,м/с)
 
Видим.   Явления Облачность Т
(С)
Тd
(С)
f
(%)
Тe
(С)
Тes
(С)
Комфортность P
(гПа)
Po
(гПа)
Тmin
(С)
Tmax
(С)
R
(мм)
R24
(мм)
S
(см)
03 15.09 ЮЗ 2 н/о н/о +10.4 +7.1 80 +9 +9 1015.4 1000.0 +10.4 +24.9
12 15.09 Ю 9 н/о н/о +24.4 +8.9 37 +25 +25 комфорт 1013.7 999.1 +10.3 +27.0
18 15.09 Ю 8 н/о н/о +15.5 +10.9 74 +14 +14 1014.9 999.8 +15.4 +27.0
21 15.09 Ю 6 н/о н/о +17.3 +0.1 31 +17 +17 1015.1 1000.1 +15.0 +27.0
03 16.09 Ю 5 н/о н/о +16.5 +1.8 37 +16 +16 1012.2 997.2 +15.0 +27.0
09 16.09 ЮЗ 3 н/о н/о +23.8 +6.7 33 +24 +24 комфорт 1013.4 998.8 +19.2 +24.3
12 16.09 ЮЗ 7 н/о н/о +23.7 +11.5 46 +25 +25 комфорт 1012.4 997.8 +19.2 +25.7
15 16.09 Ю 10 н/о н/о +19.0 +13.2 69 +19 +19 1012.7 997.8 +18.5 +25.7
18 16.09 Ю 4 н/о н/о +14.4 +12.8 90 +13 +13 1014.7 999.6 +14.4 +25.7
21 16.09 ЮЗ 2 н/о н/о +13.6 +12.1 91 +13 +13 1015.1 999.9 +13.6 +25.7
00 17.09 Ю 5 н/о н/о +12.5 +11.0 91 +10 +10 1014.6 999.4 +12.4 +25.7
03 17.09 Ю 3 н/о н/о +13.6 +10.2 80 +13 +13 1013.4 998.2 +12.3 +25.7
06 17.09 Ю 1 н/о н/о +12.7 +9.9 83 +13 +13 1013.9 998.7 +11.0
15 17.09 ЮЗ 7 н/о н/о +21.0 +12.8 59 +23 +23 комфорт 1011.9 997.1 +21.0 +25.8
18 17.09 ЮЗ 3 н/о н/о +12.5 +11.5 94 +11 +11 1014.0 998.8 +12.5 +25.8
21 17.09 ЮЗ 3 н/о н/о +13.5 +11.9 90 +12 +12 1013.5 998.3 +12.3 +25.8
00 18.09 Ю 4 н/о н/о +12.5 +11.2 92 +11 +11 1013.3 998.1 +12.3 +25.8
03 18.09 ЮЗ 2 н/о н/о +12.6 +10.8 89 +12 +12 1012.2 997.0 +11.9 +25.8
06 18.09 З 2 н/о н/о +13.3 +11.5 89 +13 +13 1013.3 998.1 +11.6
09 18.09 С 6 н/о н/о +15.6 +11.4 76 +14 +14 1014.1 999.0 +11.6 +15.7
12 18.09 СЗ 7 н/о н/о +15.7 +11.3 75 +14 +14 1013.6 998.6 +11.6 +16.8
15 18.09 С 5 н/о н/о +13.7 +11.6 87 +12 +12 1012.8 997.7 +13.7 +16.8
12 19.09 СЗ 8 н/о н/о +15.3 +12.2 82 +13 +13 1015.1 1000.0 +13.6 +17.1
15 19.09 С 3 н/о н/о +15.9 +12.6 81 +16 +16 1015.4 1000.3 +14.8 +17.1
18 19.09 СЗ 3 н/о н/о +14.8 +12.6 87 +14 +14 1016.0 1000.9 +14.6 +17.1
21 19.09 Ю 2 н/о н/о +13.7 +12.2 91 +13 +13 1016.2 1001.0 +13.6 +17.1
00 20.09 Ю 2 н/о н/о +13.0 +11.7 92 +12 +12 1015.3 1000.1 +12.8 +17.1
03 20.09 ЮВ 1 н/о н/о +12.7 +11.6 93 +13 +13 1015.5 1000.3 +11.8 +17.1
06 20.09 ЮЗ 1 н/о н/о +14.4 +12.6 89 +15 +15 1016.9 1001.7 +11.8
09 20.09 ЮЗ 4 н/о н/о +19.2 +13.0 67 +20 +20 1016.4 1001.5 +11.8 +19.2
15 20.09 Ю 9 н/о н/о +19.9 +13.9 68 +21 +21 комфорт 1012.5 997.7 +19.6 +21.7
21 20.09 Ю 7 н/о н/о +17.6 +14.3 81 +17 +17 1013.0 998.1 +14.9 +17.6
03 21.09 Ю 4 н/о н/о +15.4 +11.4 77 +14 +14 1012.2 997.2 +14.9 +18.1
09 21.09 Ю 11 н/о н/о +20.8 +12.1 57 +22 +22 комфорт 1015.1 1000.3 +13.9 +21.0
12 21.09 Ю 14 н/о н/о +20.8 +12.1 57 +22 +22 комфорт 1014.6 999.8 +13.9 +21.4
18 21.09 Ю 9 н/о н/о +17.7 +10.1 61 +17 +17 1016.7 1001.7 +17.6 +21.4
21 21.09 Ю 10 н/о н/о +15.2 +9.4 68 +13 +13 1017.8 1002.7 +15.2 +21.4

 

Местоположение метеостанции Людериц (Намибия): широта -26.63 долгота 15.10 высота над уровнем моря 23 м.

В архиве по умолчанию представлена погода в Людерице за последнюю неделю. Архивные данные за месяц целиком и за предыдущие месяцы, начиная с января 2011 года, Вы можете получить, выбрав интересующий диапазон дат из раскрывающегося списка и нажав кнопку "Ввод!".


*Определитесь, кто Вы:
робот инопланетянин человек

Внимание! Время в таблицах - всемирное. Для получения местного времени необходимо прибавить поправку, которая равна 2 ч.

Смотрите также архив погоды в соседних городах и на ближайших метеорологических станциях:

Погода в Александер-Бее (Южная Африка) (257 км)
Погода в Китмансхупе (Намибия) (301 км)
Погода в Виулсдрифе (Южная Африка) (337 км)
Погода в Порт Ноллоз (Южная Африка) (337 км)
Погода в Аэропорту Walvis Bay (Намибия) (409 км)
Погода в Аэропорту Eros (Намибия) (423 км)
Погода в Спрингбоке (Южная Африка) (435 км)
Погода в Коингнаасе (Южная Африка) (451 км)
Погода в Виндхуке (Намибия) (496 км)
Погода в Пофаддере (Южная Африка) (504 км)

Пояснения к столбцам:

Ветер - указаны скорость ветра в м/с - средняя за 10 мин, порывы в срок и между сроками (в фигурных скобках) и направление, откуда дует ветер: С - северный, СВ - северо-восточный, В - восточный, ЮВ - юго-восточный, Ю - южный, ЮЗ - юго-западный, З - западный, СЗ - северо-западный.
Видимость - горизонтальная дальность видимости в метрах или километрах. При видимости от 1 до 10 км при отсутствии осадков обычно наблюдается дымка, при ухудшении видимости до 1 км и менее - туман. В сухую погоду видимость может ухудшаться дымом, пылью или мглою.
Явления - указаны атмосферные явления, наблюдавшиеся в срок или в последний час перед сроком; фигурными скобками обозначены явления, наблюдавшиеся между сроками (за 1-3 часа до срока); квадратными скобками обозначены град или гололедные отложения с указанием их диаметра в мм.
Облачность - указаны через наклонную черту общая и нижняя облачность в баллах и высота нижней границы облаков в метрах; квадратными скобками обозначены формы облаков: Ci - перистые, Cs - перисто-слоистые, Cc - перисто-кучевые, Ac - высококучевые, As - высокослоистые, Sc - слоисто-кучевые, Ns - слоисто-дождевые, Cu - кучевые, Cb - кучево-дождевые. Подробнее классификацию облаков см. в Атласе облаков (PDF).
T - Температура воздуха - температура, измеренная на высоте 2 м над землей.
Td - Температура точки росы - температура, при понижении до которой содержащийся в воздухе водяной пар достигнет насыщения.
f - Относительная влажность воздуха - влажноcть воздуха, измеренная на высоте 2 м над землей.
Te - Эффективная температура - температура, которую ощущает одетый по сезону человек в тени. Характеристика душности погоды. При расчете учитывается влияние влажности воздуха и скорости ветра на теплоощущения человека.
Tes - Эффективная температура на солнце - температура, которую ощущает человек, с поправкой на солнечный нагрев. Характеристика знойности погоды. Зависит от высоты солнца над горизонтом, облачности и скорости ветра. Ночью, в пасмурную погоду, а также при ветре 12 м/с и более поправка равна нулю.
P - Атмосферное давление - приведенное к уровню моря атмосферное давление.
Po - Атмосферное давление - измеренное на уровне метеостанции атмосферное давление.
Tmin - Минимальная температура - минимум температуры воздуха на высоте 2 м над землей.
Tmax - Максимальная температура - максимум температуры воздуха на высоте 2 м над землей.
R - Количество осадков - Количество выпавших осадков за период времени, мм. При наведении курсора мыши на число - период времени, за который выпало указанное количество осадков.
R24 - Количество осадков - Количество выпавших осадков за 24 часа, мм.
S - Снежный покров - Высота снежного покрова, см. При наведении курсора мыши на число - состояние снежного покрова и степень покрытия местности в баллах.